[keps] orb09183.amsat

Ray Hoad r.hoad at att.net
Thu Jul 2 19:53:35 PDT 2009


SB KEPS @ AMSAT  $ORB09183.O
Orbital Elements  09183.OSCAR

HR AMSAT ORBITAL ELEMENTS FOR OSCAR SATELLITES
FROM WA5QGD FORT WORTH,TX July 2, 2009
Send Subscribe/unsubscribe to KEPS at 
http://www.amsat.org/mailman/listinfo/keps
BID: ORB09183.O
TO ALL RADIO AMATEURS BT

Satellite: AO-07
Catalog number: 07530
Epoch time:      09182.77311510
Element set:    190
Inclination:      101.4266 deg
RA of node:       206.9140 deg
Eccentricity:    0.0011643
Arg of perigee:   238.7757 deg
Mean anomaly:     121.2173 deg
Mean motion:   12.53575826 rev/day
Decay rate:       -2.7e-07 rev/day^2
Epoch rev:           58454
Checksum:              281

Satellite: FO-29
Catalog number: 24278
Epoch time:      09182.71877846
Element set:    0769
Inclination:      098.5528 deg
RA of node:       054.8007 deg
Eccentricity:    0.0350211
Arg of perigee:   312.8781 deg
Mean anomaly:     044.3432 deg
Mean motion:   13.52943547 rev/day
Decay rate:      -1.24e-06 rev/day^2
Epoch rev:           63571
Checksum:              330

Satellite: SO-33
Catalog number: 25509
Epoch time:      09182.73474374
Element set:     487
Inclination:      031.4321 deg
RA of node:       330.2298 deg
Eccentricity:    0.0354090
Arg of perigee:   105.7355 deg
Mean anomaly:     258.2598 deg
Mean motion:   14.28253975 rev/day
Decay rate:       -1.8e-07 rev/day^2
Epoch rev:           55791
Checksum:              326

Satellite: RS-22
Catalog number: 27939
Epoch time:      09182.83157652
Element set:    04
Inclination:      097.9433 deg
RA of node:       057.1670 deg
Eccentricity:    0.0014797
Arg of perigee:   086.9437 deg
Mean anomaly:     273.3479 deg
Mean motion:   14.63326015 rev/day
Decay rate:      .4.0 e-06 rev/day^2
Epoch rev:           30771
Checksum:              319

Satellite: VO-52
Catalog number: 28650
Epoch time:      09182.83982243
Element set:    2636
Inclination:      097.7416 deg
RA of node:       243.9371 deg
Eccentricity:    0.0026618
Arg of perigee:   344.2726 deg
Mean anomaly:     015.7618 deg
Mean motion:   14.81596860 rev/day
Decay rate:      -1.58e-06 rev/day^2
Epoch rev:           22481
Checksum:              336

/EX
SB KEPS @ AMSAT  $ORB09183.D
Orbital Elements  09183.MICROS

HR AMSAT ORBITAL ELEMENTS FOR THE MICROSATS
FROM WA5QGD FORT WORTH,TX July 2, 2009
Send Subscribe/unsubscribe to KEPS at 
http://www.amsat.org/mailman/listinfo/keps
BID: ORB09183.D
TO ALL RADIO AMATEURS BT

Satellite: AO-16
Catalog number: 20439
Epoch time:      09183.50802374
Element set:     641
Inclination:      098.2792 deg
RA of node:       151.2130 deg
Eccentricity:    0.0011729
Arg of perigee:   122.6313 deg
Mean anomaly:     237.6008 deg
Mean motion:   14.31827582 rev/day
Decay rate:        1.7e-07 rev/day^2
Epoch rev:            1534
Checksum:              273

Satellite: LO-19
Catalog number: 20442
Epoch time:      09182.65418699
Element set:    5590
Inclination:      098.2419 deg
RA of node:       157.6050 deg
Eccentricity:    0.0012920
Arg of perigee:   122.3976 deg
Mean anomaly:     237.8469 deg
Mean motion:   14.32062403 rev/day
Decay rate:       -7.8e-07 rev/day^2
Epoch rev:           01538
Checksum:              318

Satellite: AO-27
Catalog number: 22825
Epoch time:      09182.84687692
Element set:    2814
Inclination:      098.4362 deg
RA of node:       135.8087 deg
Eccentricity:    0.0007896
Arg of perigee:   215.8340 deg
Mean anomaly:     144.2308 deg
Mean motion:   14.29268103 rev/day
Decay rate:       -6.3e-07 rev/day^2
Epoch rev:           82200
Checksum:              321

Satellite: IO-26
Catalog number: 22826
Epoch time:      09182.76450543
Element set:       7
Inclination:      098.4305 deg
RA of node:       136.4719 deg
Eccentricity:    0.0008295
Arg of perigee:   212.8419 deg
Mean anomaly:     147.2254 deg
Mean motion:   14.29520626 rev/day
Decay rate:        9.0e-08 rev/day^2
Epoch rev:           82209
Checksum:              304

Satellite: GO-32
Catalog number: 25397
Epoch time:      09182.76663270
Element set:    9333
Inclination:      098.3255 deg
RA of node:       204.3258 deg
Eccentricity:    0.0001164
Arg of perigee:   160.3494 deg
Mean anomaly:     199.7748 deg
Mean motion:   14.23159621 rev/day
Decay rate:      -1.62e-06 rev/day^2
Epoch rev:           57020
Checksum:              314

Satellite: NO-44
Catalog number: 26931
Epoch time:      09182.83659350
Element set:    061
Inclination:      067.0534 deg
RA of node:       026.6032 deg
Eccentricity:    0.0005709
Arg of perigee:   274.2632 deg
Mean anomaly:     085.7782 deg
Mean motion:   14.29560473 rev/day
Decay rate:       -5.7e-07 rev/day^2
Epoch rev:           40467
Checksum:              309

Satellite: SO-50
Catalog number: 27607
Epoch time:      09182.80025571
Element set:    250
Inclination:      064.5601 deg
RA of node:       340.7069 deg
Eccentricity:    0.0065384
Arg of perigee:   202.2847 deg
Mean anomaly:     157.5396 deg
Mean motion:   14.71444207 rev/day
Decay rate:       -8.9e-07 rev/day^2
Epoch rev:           35082
Checksum:              301

Satellite: CO-55
Catalog number: 27844
Epoch time:      09183.55729194
Element set:     613
Inclination:      098.7129 deg
RA of node:       192.5045 deg
Eccentricity:    0.0011062
Arg of perigee:   097.9347 deg
Mean anomaly:     262.3085 deg
Mean motion:   14.20644658 rev/day
Decay rate:        3.3e-07 rev/day^2
Epoch rev:           31144
Checksum:              315

Satellite: CO-57
Catalog number: 27848
Epoch time:      09182.55080899
Element set:    11
Inclination:      098.7150 deg
RA of node:       190.5733 deg
Eccentricity:    0.0010606
Arg of perigee:   103.6760 deg
Mean anomaly:     256.5614 deg
Mean motion:   14.20445968 rev/day
Decay rate:      .3.3 e-06 rev/day^2
Epoch rev:           31126
Checksum:              302

Satellite: AO-51
Catalog number: 28375
Epoch time:      09182.75830528
Element set:    289
Inclination:      098.0513 deg
RA of node:       191.5111 deg
Eccentricity:    0.0085053
Arg of perigee:   080.5398 deg
Mean anomaly:     280.5385 deg
Mean motion:   14.40645921 rev/day
Decay rate:       -2.0e-08 rev/day^2
Epoch rev:           26305
Checksum:              305

Satellite: CO-56
Catalog number: 28941
Epoch time:      09182.79933625
Element set:    62
Inclination:      098.1401 deg
RA of node:       359.9973 deg
Eccentricity:    0.0080115
Arg of perigee:   077.5962 deg
Mean anomaly:     283.4235 deg
Mean motion:   15.86619436 rev/day
Decay rate:   .7.2481 e-03 rev/day^2
Epoch rev:           18956
Checksum:              360

Satellite: GENESAT1
Catalog number: 29655
Epoch time:      09182.91585910
Element set:    92
Inclination:      040.0213 deg
RA of node:       091.0058 deg
Eccentricity:    0.0003258
Arg of perigee:   270.9258 deg
Mean anomaly:     089.1194 deg
Mean motion:   15.65884563 rev/day
Decay rate:   .1.0878 e-03 rev/day^2
Epoch rev:           14478
Checksum:              318

Satellite: CP3
Catalog number: 31129
Epoch time:      09182.77987531
Element set:    55
Inclination:      097.9890 deg
RA of node:       235.1593 deg
Eccentricity:    0.0101238
Arg of perigee:   239.4819 deg
Mean anomaly:     119.6357 deg
Mean motion:   14.52143418 rev/day
Decay rate:     .1.32 e-05 rev/day^2
Epoch rev:           11700
Checksum:              305

Satellite: CO-65
Catalog number: 32785
Epoch time:      09182.44362509
Element set:    74
Inclination:      097.9458 deg
RA of node:       246.2940 deg
Eccentricity:    0.0014764
Arg of perigee:   350.2822 deg
Mean anomaly:     009.8113 deg
Mean motion:   14.81495927 rev/day
Decay rate:     .2.07 e-05 rev/day^2
Epoch rev:           06355
Checksum:              322

Satellite: KKS-1
Catalog number: 33493
Epoch time:      09183.77706598
Element set:     530
Inclination:      098.0580 deg
RA of node:       296.0552 deg
Eccentricity:    0.0019858
Arg of perigee:   187.5348 deg
Mean anomaly:     172.5572 deg
Mean motion:   14.80692483 rev/day
Decay rate:       2.45e-06 rev/day^2
Epoch rev:            2377
Checksum:              341

Satellite: SOHLA-1
Catalog number: 33496
Epoch time:      09183.77594779
Element set:     492
Inclination:      098.0394 deg
RA of node:       292.8418 deg
Eccentricity:    0.0005499
Arg of perigee:   227.3072 deg
Mean anomaly:     132.7676 deg
Mean motion:   14.69438482 rev/day
Decay rate:        1.6e-07 rev/day^2
Epoch rev:            2356
Checksum:              349

/EX
SB KEPS @ AMSAT  $ORB09183.W
Orbital Elements  09183.WEATHER

HR AMSAT ORBITAL ELEMENTS FOR WEATHER SATELLITES
FROM WA5QGD FORT WORTH,TX July 2, 2009
Send Subscribe/unsubscribe to KEPS at 
http://www.amsat.org/mailman/listinfo/keps
BID: ORB09183.W
TO ALL RADIO AMATEURS BT

Satellite: NOAA-10
Catalog number: 16969
Epoch time:      09182.66741184
Element set:    05
Inclination:      098.6907 deg
RA of node:       209.2358 deg
Eccentricity:    0.0012565
Arg of perigee:   150.9170 deg
Mean anomaly:     209.2709 deg
Mean motion:   14.27389576 rev/day
Decay rate:      .3.9 e-06 rev/day^2
Epoch rev:           18557
Checksum:              333

Satellite: NOAA-11
Catalog number: 19531
Epoch time:      09182.84560425
Element set:    6868
Inclination:      098.7849 deg
RA of node:       272.5732 deg
Eccentricity:    0.0012303
Arg of perigee:   069.2975 deg
Mean anomaly:     290.9497 deg
Mean motion:   14.14897867 rev/day
Decay rate:      -1.17e-06 rev/day^2
Epoch rev:           07159
Checksum:              360

Satellite: NOAA-12
Catalog number: 21263
Epoch time:      09182.98688847
Element set:    944
Inclination:      098.7715 deg
RA of node:       191.0524 deg
Eccentricity:    0.0013479
Arg of perigee:   101.1502 deg
Mean anomaly:     259.1194 deg
Mean motion:   14.25583610 rev/day
Decay rate:       -1.0e-08 rev/day^2
Epoch rev:           94250
Checksum:              305

